Location: Leeds
(37.2390°N, 113.3580°W)
Time: 16:25:28
(UTC-06:00)

Daily predictions for brighter satellites

Satellite Brightness Start Highest point End
(mag) Time Altitude Azimuth Time Altitude Azimuth Time Altitude Azimuth
Cosmos 1844 Rocket 4.2 20:07:56 10° SW 20:13:15 42° WNW 20:18:36 10° N
RESURS DK-1 2.4 20:09:36 10° NNW 20:13:43 68° ENE 20:17:49 10° SSE
Resurs 01 Rocket 2.6 20:11:16 10° SE 20:15:03 29° ENE 20:18:51 10° N
Cosmos 1544 3.9 20:14:35 10° SSE 20:17:47 30° E 20:21:01 10° NNE
Cosmos 1437 Rocket 4.0 20:18:42 10° SSW 20:22:35 49° WNW 20:26:34 10° N
Lacrosse 5 3.0 20:18:17 10° WSW 20:23:09 46° NW 20:28:02 10° NNE
USA 215 4.3 20:19:14 10° ENE 20:24:01 21° ESE 20:28:48 10° S
FENGYUN 3A 3.7 20:18:50 10° SSE 20:24:07 59° ENE 20:29:26 10° N
Cosmos 1833 Rocket 3.8 20:22:33 10° N 20:27:13 26° ENE 20:31:51 10° ESE
Cosmos 1605 Rocket 4.1 20:22:49 10° S 20:28:58 62° E 20:35:14 10° NNE
Cosmos 1470 4.4 20:26:44 10° SE 20:29:13 16° E 20:31:42 10° NE
Spot 2 Rocket 3.9 20:25:41 10° SE 20:30:28 43° ENE 20:35:17 10° N
Cosmos 1867 3.6 20:27:44 10° SSW 20:33:03 58° ESE 20:38:24 10° NE
Cosmos 2278 Rocket 2.6 20:27:33 10° SSW 20:33:12 70° WNW 20:38:52 10° NNE
SJ-6B 2.9 20:33:18 10° S 20:37:01 73° WSW 20:40:45 10° NNW
ATLAS 5 CENTAUR R/B 2.1 20:35:25 10° S 20:39:42 40° ESE 20:44:19 10° NE
Cosmos 2344 4.2 20:32:43 10° SW 20:40:17 62° NW 20:48:43 10° NNE
Cosmos 1340 Rocket 4.5 20:39:31 10° NNE 20:42:02 16° ENE 20:42:57 15° E
H-2A R/B 2.8 20:41:26 10° SSE 20:45:16 63° ENE 20:49:10 10° N
Timation 1 Rocket 4.3 20:39:41 10° SSW 20:45:42 83° ESE 20:51:44 10° NNE
Cosmos 2123 Rocket 4.1 20:39:28 10° N 20:45:48 89° W 20:52:05 10° S
Envisat 4.1 20:45:57 15° ESE 20:48:45 24° ENE 20:52:45 10° NNE
Cosmos 2297 3.7 20:44:41 10° SSW 20:50:21 73° ESE 20:56:05 10° NNE
Resurs 1-3 3.6 20:48:21 10° SSE 20:52:40 64° ENE 20:57:01 10° N
Cosmos 1125 Rocket 3.5 20:52:48 10° SSW 20:58:00 89° WNW 21:03:15 10° NNE
FengYun 1-2 T 4.5 20:52:51 10° S 20:58:25 74° WSW 21:04:03 10° NNW
Cosmos 1408 Rocket 3.9 20:54:43 10° N 20:59:00 43° E 21:02:22 15° SSE
HJ-1C 4.5 20:57:52 10° S 21:01:09 47° W 21:04:28 10° NNW
Cosmos 1048 Rocket 4.0 20:58:14 10° N 21:03:18 59° ENE 21:07:19 16° SSE
Cosmos 1153 Rocket 4.5 20:57:26 10° S 21:03:49 80° E 21:10:15 10° N
ERS-1 Rocket 4.5 21:03:18 18° ENE 21:03:53 18° ENE 21:07:12 10° NNE
Geosat 3.9 20:58:54 10° NNE 21:03:55 66° ESE 21:08:53 10° SSW
Cosmos 1758 3.5 21:00:05 10° SSW 21:04:02 75° W 21:08:02 10° N
SeaSat 1 2.7 20:59:25 10° SSE 21:04:19 72° WSW 21:09:16 10° NNW
Cosmos 2082 Rocket 2.3 21:00:03 10° NNW 21:05:41 60° ENE 21:09:47 18° SE
GPS 2-05 Rocket1 3.0 21:04:21 10° WSW 21:07:52 60° S 21:09:03 36° ESE
ALOS 3.4 21:03:40 10° S 21:08:07 44° W 21:12:37 10° NNW
Cosmos 2061 Rocket 4.3 21:04:08 10° SSE 21:10:12 47° E 21:16:18 10° NNE
Cosmos 1271 Rocket 2.8 21:07:12 10° S 21:11:07 54° E 21:15:03 10° NNE
Cosmos 1953 2.7 21:07:06 10° SSW 21:11:08 67° W 21:15:11 10° N
Helios 1B rocket 2.3 21:11:52 10° NNE 21:15:59 69° ESE 21:20:04 10° S
SAR-Lupe-4 3.4 21:15:34 30° SSE 21:17:11 71° ENE 21:20:46 10° N
Timation 2 Rocket 4.0 21:11:08 10° NNW 21:17:21 61° ENE 21:20:52 26° SE
Abrixas 2.3 21:15:13 10° WNW 21:18:02 70° SW 21:18:13 67° S
Tiangong 1 3.4 21:17:34 10° WSW 21:19:22 15° SW 21:20:18 13° SSW
Cosmos 1939 Rocket 3.5 21:20:09 35° ENE 21:20:20 35° ENE 21:24:08 10° N
Cosmos 1459 Rocket 3.9 21:14:22 10° S 21:20:32 62° E 21:26:38 10° NNE
Meteor 1-29 2.9 21:18:14 10° NNE 21:21:42 63° E 21:23:14 30° S
Cosmos 1076 Rocket 3.8 21:19:00 10° NNW 21:23:13 65° W 21:27:24 10° S
OAO 2 Rocket 4.2 21:19:13 10° SW 21:23:47 31° SSE 21:24:21 30° SE
Spot 1 4.2 21:21:22 19° SSE 21:24:42 83° ENE 21:29:37 10° NNW
Cosmos 1674 2.5 21:20:55 10° N 21:24:43 87° E 21:26:28 31° S
CZ-4B DEB 3.2 21:25:30 44° NNE 21:25:30 44° NNE 21:27:54 10° N
Cosmos 2173 Rocket 3.9 21:21:33 10° S 21:27:39 70° E 21:33:52 10° NNE
COSMOS 2487 2.7 21:26:17 10° NNW 21:29:51 70° WSW 21:30:55 41° S
Helios 1A 3.0 21:29:49 27° S 21:32:04 81° WSW 21:36:16 10° NNW
ISS -2.9 21:30:47 10° WSW 21:33:56 45° NW 21:34:47 35° N
Lacrosse 5 rocket 1.9 21:30:31 10° NNW 21:33:58 37° NE 21:33:58 37° NE
USA 186 3.5 21:36:22 21° NW 21:36:22 21° NW 21:37:25 10° NNW
SAR-Lupe-1 4.1 21:35:10 50° S 21:35:58 74° WSW 21:39:33 10° NNW
Cosmos 2251 Rocket 4.0 21:36:55 10° N 21:41:55 40° ENE 21:41:55 40° ENE
Cosmos 1818 4.5 21:37:09 10° NW 21:42:19 46° WSW 21:45:51 19° S
Meteor 2-17 Rocket 4.3 21:37:20 10° S 21:43:24 66° E 21:49:29 10° NNE
GP-B 3.8 21:39:23 10° SSW 21:43:43 54° W 21:48:05 10° NNW
Cosmos 1766 Rocket 4.3 21:40:39 10° NNW 21:45:01 52° W 21:48:15 17° SSW
Cosmos-2242 3.9 21:44:20 10° SSW 21:48:25 47° W 21:52:33 10° N
Resurs 01 Rocket 3.9 21:48:00 10° SSW 21:51:29 23° W 21:54:59 10° NW
Cosmos 2016 Rocket 3.9 21:53:23 10° S 21:59:38 90° W 22:05:49 10° N
USA 215 3.2 22:00:54 10° NE 22:07:28 87° NW 22:13:59 10° SW
H-2A R/B (2) 3.8 22:04:48 10° WSW 22:08:05 28° S 22:08:05 28° S
Cosmos 1725 Rocket 3.8 22:08:01 68° SE 22:08:37 73° E 22:14:48 10° N
SPOT 5 4.2 22:12:49 33° NNE 22:12:49 33° NNE 22:16:08 10° N
Cosmos 1833 Rocket 3.7 22:06:01 10° NW 22:11:14 41° WSW 22:13:41 27° SSW
Cosmos 1743 Rocket 4.3 22:12:00 10° NNW 22:16:07 51° W 22:16:07 51° W
Cosmos 1340 Rocket 4.5 22:15:01 10° NNW 22:18:34 31° W 22:18:37 31° W
Cosmos 494 Rocket 4.2 22:13:59 10° NNW 22:18:14 62° NNW 22:18:14 62° NNW
ATLAS 5 CENTAUR R/B 4.0 22:20:40 10° W 22:24:32 24° NW 22:28:39 10° N
Envisat 4.3 22:26:09 31° SW 22:27:31 36° W 22:32:12 10° NNW
Tsikada Rocket 4.0 22:24:51 10° N 22:30:37 78° N 22:30:37 78° N
USA 267 4.3 22:38:11 33° NE 22:38:25 33° NNE 22:44:05 10° NNW
H-2A R/B 3.9 22:42:53 22° NNE 22:42:53 22° NNE 22:44:50 10° N
ERS-1 Rocket 4.0 22:43:18 43° WNW 22:43:18 43° WNW 22:47:08 10° NNW
